Location: Bauerbach
(50.4985°N, 10.3912°E)
Time: 20:52:12
(UTC+00:00)

Gblst 52 Del rocket - Pass Details

Date: 13 January 2026
Orbit: 805 x 1364 km, 51.5° (Epoch: 16 February)

Event Time Altitude Azimuth Distance (km) Brightness Sun altitude
Exits shadow 05:40:13 21° 283° (WNW) 1,730 5.2 -14.4°
Maximum altitude 05:43:55 78° 200° (SSW) 829 4.1 -13.8°
Drops below altitude 10° 05:49:32 10° 115° (ESE) 2,447 8.1 -13.0°
Sets 05:52:05 0° 114° (ESE) 3,428 9.4 -12.6°
